TimePST,TemperatureF,Dew PointF,Humidity,Sea Level PressureIn,VisibilityMPH,Wind Direction,Wind SpeedMPH,Gust SpeedMPH,PrecipitationIn,Events,Conditions,WindDirDegrees,DateUTC
12:53 AM,27.0,24.1,89,29.96,10.0,West,15.0,-,N/A,,Scattered Clouds,260,2012-12-08 08:53:00
1:53 AM,28.0,21.9,78,29.99,10.0,WNW,5.8,-,N/A,,Overcast,290,2012-12-08 09:53:00
2:53 AM,24.8,21.2,86,29.95,10.0,West,9.2,-,N/A,,Scattered Clouds,270,2012-12-08 10:53:00
3:53 AM,24.8,19.4,80,29.96,10.0,West,8.1,-,N/A,,Partly Cloudy,260,2012-12-08 11:53:00
4:53 AM,24.1,19.0,81,30.04,10.0,WSW,5.8,-,N/A,,Partly Cloudy,250,2012-12-08 12:53:00
5:53 AM,23.0,19.0,85,30.07,10.0,WSW,8.1,-,N/A,,Clear,240,2012-12-08 13:53:00
6:53 AM,21.0,18.0,88,30.09,10.0,WSW,8.1,-,N/A,,Partly Cloudy,250,2012-12-08 14:53:00
7:53 AM,23.0,19.0,85,30.12,10.0,SW,6.9,-,N/A,,Scattered Clouds,230,2012-12-08 15:53:00
8:53 AM,25.0,21.0,85,30.13,10.0,SW,6.9,-,N/A,,Scattered Clouds,220,2012-12-08 16:53:00
9:53 AM,28.0,21.0,75,30.16,10.0,SSW,6.9,-,N/A,,Scattered Clouds,210,2012-12-08 17:53:00
10:53 AM,30.0,21.0,69,30.16,10.0,West,8.1,-,N/A,,Mostly Cloudy,270,2012-12-08 18:53:00
11:53 AM,32.0,19.9,61,30.15,10.0,West,6.9,-,N/A,,Scattered Clouds,260,2012-12-08 19:53:00
12:53 PM,34.0,17.1,50,30.15,10.0,West,6.9,-,N/A,,Scattered Clouds,280,2012-12-08 20:53:00
1:53 PM,35.1,12.9,40,30.16,10.0,West,8.1,-,N/A,,Scattered Clouds,280,2012-12-08 21:53:00
2:53 PM,34.0,16.0,48,30.18,10.0,West,10.4,-,N/A,,Mostly Cloudy,260,2012-12-08 22:53:00
3:53 PM,30.9,17.1,57,30.21,10.0,West,5.8,-,N/A,,Mostly Cloudy,280,2012-12-08 23:53:00
4:53 PM,28.4,17.6,64,30.15,10.0,NE,3.5,-,N/A,,Scattered Clouds,50,2012-12-09 00:53:00
5:53 PM,28.0,19.0,69,30.25,10.0,Calm,Calm,-,N/A,,Mostly Cloudy,0,2012-12-09 01:53:00
6:53 PM,27.0,19.0,72,30.27,10.0,Calm,Calm,-,N/A,,Mostly Cloudy,0,2012-12-09 02:53:00
7:53 PM,28.9,17.1,61,30.29,10.0,North,3.5,-,N/A,,Mostly Cloudy,360,2012-12-09 03:53:00
8:53 PM,25.0,19.0,78,30.30,10.0,WSW,3.5,-,N/A,,Mostly Cloudy,240,2012-12-09 04:53:00
9:53 PM,21.9,18.0,85,30.32,10.0,West,3.5,-,N/A,,Partly Cloudy,270,2012-12-09 05:53:00
10:53 PM,21.0,17.1,85,30.33,10.0,WSW,3.5,-,N/A,,Scattered Clouds,250,2012-12-09 06:53:00
11:53 PM,19.9,17.1,89,30.34,10.0,WSW,3.5,-,N/A,,Partly Cloudy,250,2012-12-09 07:53:00